Orbital elements of COSMOS 1275 DEB
| Launched | 3 June 1981 |
| Flight ended | – |
| Launch site | Plesetsk Missile and Space Complex, Russia |
| Owner | Commonwealth of Independent States (former USSR) |
| NORAD ID | 17618 |
| Date fetched |
Epoch osculation |
Inc. [°] |
Ecc. | RA asc node [hr] |
Arg Peri. [°] |
Mean anom [°] |
Mean motion [rev/day] |
Abs. mag |
| Date fetched |
Epoch osculation |
Inc. [°] |
Ecc. | RA asc node [hr] |
Arg Peri. [°] |
Mean anom [°] |
Mean motion [rev/day] |
Abs. mag |
| 2026 May 03 17:57 | 2026 Apr 30 15:10:21 | 82.8484 | 0.00402 | 11.8489 | 328.3031 | 185.3771 | 14.12926 | – |
| 2026 May 02 17:57 | 2026 Apr 30 15:10:21 | 82.8484 | 0.00402 | 11.8489 | 328.3031 | 185.3771 | 14.12926 | – |
| 2026 May 01 17:56 | 2026 Apr 30 15:10:21 | 82.8484 | 0.00402 | 11.8489 | 328.3031 | 185.3771 | 14.12926 | – |
| 2026 Apr 30 17:56 | 2026 Apr 30 15:10:21 | 82.8484 | 0.00402 | 11.8489 | 328.3031 | 185.3771 | 14.12926 | – |
| 2026 Apr 29 17:57 | 2026 Apr 24 03:55:09 | 82.8480 | 0.00406 | 12.1938 | 349.1796 | 185.3771 | 14.12926 | – |
| 2026 Apr 28 17:56 | 2026 Apr 24 03:55:09 | 82.8480 | 0.00406 | 12.1938 | 349.1796 | 185.3771 | 14.12926 | – |
| 2026 Apr 27 17:58 | 2026 Apr 24 03:55:09 | 82.8480 | 0.00406 | 12.1938 | 349.1796 | 185.3771 | 14.12926 | – |
| 2026 Apr 26 17:58 | 2026 Apr 24 03:55:09 | 82.8480 | 0.00406 | 12.1938 | 349.1796 | 185.3771 | 14.12926 | – |
| 2026 Apr 25 17:58 | 2026 Apr 24 03:55:09 | 82.8480 | 0.00406 | 12.1938 | 349.1796 | 185.3771 | 14.12926 | – |
| 2026 Apr 24 17:59 | 2026 Apr 24 03:55:09 | 82.8480 | 0.00406 | 12.1938 | 349.1796 | 185.3771 | 14.12926 | – |
| 2026 Apr 23 17:57 | 2026 Apr 19 11:41:30 | 82.8481 | 0.00410 | 12.4431 | 3.9972 | 185.3771 | 14.12926 | – |
| 2026 Apr 22 17:57 | 2026 Apr 19 11:41:30 | 82.8481 | 0.00410 | 12.4431 | 3.9972 | 185.3771 | 14.12926 | – |
| 2026 Apr 21 17:57 | 2026 Apr 19 11:41:30 | 82.8481 | 0.00410 | 12.4431 | 3.9972 | 185.3771 | 14.12926 | – |
| 2026 Apr 20 17:57 | 2026 Apr 19 11:41:30 | 82.8481 | 0.00410 | 12.4431 | 3.9972 | 185.3771 | 14.12926 | – |
| 2026 Apr 19 17:58 | 2026 Apr 19 11:41:30 | 82.8481 | 0.00410 | 12.4431 | 3.9972 | 185.3771 | 14.12926 | – |
| 2026 Apr 18 17:56 | 2026 Apr 13 00:05:37 | 82.8480 | 0.00419 | 12.7887 | 24.5707 | 185.3771 | 14.12926 | – |
| 2026 Apr 16 17:57 | 2026 Apr 13 00:05:37 | 82.8480 | 0.00419 | 12.7887 | 24.5707 | 185.3771 | 14.12926 | – |
| 2026 Apr 14 17:57 | 2026 Apr 13 00:05:37 | 82.8480 | 0.00419 | 12.7887 | 24.5707 | 185.3771 | 14.12926 | – |
| 2026 Apr 13 17:57 | 2026 Apr 13 00:05:37 | 82.8480 | 0.00419 | 12.7887 | 24.5707 | 185.3771 | 14.12926 | – |
| 2026 Apr 12 17:57 | 2026 Apr 08 12:13:57 | 82.8476 | 0.00428 | 13.0282 | 38.8432 | 185.3771 | 14.12926 | – |
| 2026 Apr 11 17:57 | 2026 Apr 08 12:13:57 | 82.8476 | 0.00428 | 13.0282 | 38.8432 | 185.3771 | 14.12926 | – |
| 2026 Apr 10 17:58 | 2026 Apr 08 12:13:57 | 82.8476 | 0.00428 | 13.0282 | 38.8432 | 185.3771 | 14.12926 | – |
| 2026 Apr 09 18:01 | 2026 Apr 08 12:13:57 | 82.8476 | 0.00428 | 13.0282 | 38.8432 | 185.3771 | 14.12926 | – |
| 2026 Apr 08 17:57 | 2026 Apr 08 12:13:57 | 82.8476 | 0.00428 | 13.0282 | 38.8432 | 185.3771 | 14.12926 | – |
| 2026 Apr 07 17:57 | 2026 Apr 02 06:43:24 | 82.8480 | 0.00439 | 13.3603 | 57.5990 | 185.3771 | 14.12926 | – |
| 2026 Apr 06 17:57 | 2026 Apr 02 06:43:24 | 82.8480 | 0.00439 | 13.3603 | 57.5990 | 185.3771 | 14.12926 | – |